Погода в Вентимилии

Италия     43°47′24″N   7°36′52″E
темп.,
°C
ветер,
м/с
пор.,
м/с
влажн.,
%
обл.,
%
осадки,
мм/ч
давл.,
гПа
погр.,
м
8 декабря, ср
ср801:00+11ссв2164100 0.1 1009467
04:00+10св6681100 3.3 1005457
07:00+10всв7984100 9.2 1002675
10:00+10всв3482100 8.1 1001401
13:00+9в7691100 17.3 998496
16:00+8св7780100 2.3 996876
19:00+7с6578100 3.8 998647
22:00+7сз116463 3.3 999355
9 декабря, чт
чт901:00+7ссз225540 3.3 999212
04:00+7ссз435470 0.1 999261
07:00+8ссз3351100 0.1 1000265
10:00+8зсз5550100 0.0 1001265
13:00+10зсз223943 0.0 1000317
16:00+11в33493 0.0 1002501
19:00+9ссв43585 0.0 1004366
22:00+9с42495 0.0 1005223
10 декабря, пт
пт1001:00+9с434862 0.0 1006164
04:00+9с3250100 0.0 1006212
07:00+8сз3251100 0.0 1005197
10:00+8зсз2251100 0.1 1004393
13:00+8вюв326989 0.2 1000711
16:00+8в2272100 0.0 999676
19:00+8сз4364100 0.4 999419
22:00+8с3147100 0.3 1000281
11 декабря, сб
сб1101:00+8с214386 0.3 1001308
04:00+8сз434896 0.0 1002256
07:00+8сз44473 0.0 1003180
10:00+10ссз33363 0.0 1006186
13:00+12юз22330 0.0 1008287
16:00+13ююз33350 0.0 1010438
19:00+11ссз21450 0.0 1013242
22:00+10с43420 0.0 1016159
12 декабря, вс
вс1201:00+10ссз33410 0.0 1016138
04:00+10с32395 0.0 1017148
07:00+10с32406 0.0 1019163
10:00+10с2135100 0.0 1022210
13:00+11ю113457 0.0 1022336
16:00+11юз213422 0.0 1023408
19:00+11ссз2142100 0.0 1024250
22:00+10ссз214490 0.0 1025185